STARLINK-4673 (53589 NORAD) Tracking and Keplerian Element Data

This shows tracking and keplerian element data for the satellite.

Feedback or suggestion? Click here.




ElementValue
Catalog53589
NameSTARLINK-4673
Epoch Orbit1309
Epoch Day325.25001157
Epoch Year2022
RAAN251.1062
Inclination53.2155
Eccentricity0.0001824
Argument of Perigee52.9146
Mean Anonmoly343.262
Mean Motion15.0881451
Decay Rate2.201E-05
L11 53589U 22104B 22325.25001157 .00002201 00000+0 15647-3 0 9994
L22 53589 53.2155 251.1062 0001824 52.9146 343.2620 15.08814510 13098



Live tracking and technical data element details for STARLINK-4673 (NORAD 53589). STARLINK-4673 can be tracked NOW for your location showing map with azimuth and elevation plus other details from your city location.







IsCatalogInMostPopularTable: catalog: 53589, numindb: 1
Update: records affected: 1



GetName: 53589 STARLINK-4673

Hit Count: updated at: Tue, 29 Nov 2022 01:29:52 GMT